| time (UTC) | temp F | wind direction | speed knots | gust knots | rain 1hr in | rain 24hr in | rain mn in | humidity % | barometer mb |
| 20260509160518 | 69 | 0 | 5.2 | 9.6 | 0.00 | 0.00 | 0.00 | 48 | 1016.6 |
| 20260509155518 | 68 | 23 | 3.5 | 7.8 | 0.00 | 0.00 | 0.00 | 50 | 1016.7 |
| 20260509154518 | 69 | 45 | 6.1 | 12.2 | 0.00 | 0.00 | 0.00 | 47 | 1016.8 |
| 20260509153519 | 68 | 23 | 4.3 | 9.6 | 0.00 | 0.00 | 0.00 | 51 | 1017.0 |
| 20260509152517 | 68 | 68 | 3.5 | 8.7 | 0.00 | 0.00 | 0.00 | 51 | 1017.0 |
| 20260509151518 | 68 | 68 | 4.3 | 9.6 | 0.00 | 0.00 | 0.00 | 52 | 1016.9 |
| 20260509150544 | 69 | 68 | 3.5 | 7.8 | 0.00 | 0.00 | 0.00 | 50 | 1017.0 |
| 20260509145520 | 69 | 68 | 5.2 | 10.4 | 0.00 | 0.00 | 0.00 | 50 | 1017.4 |
| 20260509144523 | 71 | 338 | 4.3 | 10.4 | 0.00 | 0.00 | 0.00 | 45 | 1017.3 |
| 20260509143538 | 73 | 68 | 6.1 | 9.6 | 0.00 | 0.00 | 0.00 | 44 | 1017.5 |
| 20260509142523 | 74 | 45 | 6.1 | 12.2 | 0.00 | 0.00 | 0.00 | 45 | 1017.5 |
| 20260509141518 | 73 | 0 | 5.2 | 10.4 | 0.00 | 0.00 | 0.00 | 47 | 1017.5 |
| 20260509140518 | 71 | 45 | 5.2 | 8.7 | 0.00 | 0.00 | 0.00 | 47 | 1017.6 |
| 20260509135548 | 69 | 68 | 5.2 | 9.6 | 0.00 | 0.00 | 0.00 | 50 | 1017.6 |
| 20260509134518 | 69 | 45 | 6.1 | 12.2 | 0.00 | 0.00 | 0.00 | 47 | 1017.5 |
| 20260509133523 | 71 | 68 | 7.0 | 11.3 | 0.00 | 0.00 | 0.00 | 46 | 1017.6 |
| 20260509132519 | 73 | 68 | 5.2 | 11.3 | 0.00 | 0.00 | 0.00 | 49 | 1017.7 |
| 20260509131518 | 72 | 45 | 3.5 | 8.7 | 0.00 | 0.00 | 0.00 | 49 | 1017.5 |
| 20260509130519 | 70 | 23 | 5.2 | 9.6 | 0.00 | 0.00 | 0.00 | 51 | 1017.6 |
| 20260509125519 | 69 | 68 | 5.2 | 10.4 | 0.00 | 0.00 | 0.00 | 51 | 1017.7 |
| 20260509124518 | 68 | 68 | 4.3 | 9.6 | 0.00 | 0.00 | 0.00 | 56 | 1017.8 |
| 20260509123518 | 69 | 0 | 4.3 | 8.7 | 0.00 | 0.00 | 0.00 | 53 | 1017.8 |
| 20260509122519 | 70 | 68 | 6.1 | 12.2 | 0.00 | 0.00 | 0.00 | 53 | 1017.8 |
| 20260509121518 | 70 | 68 | 3.5 | 7.0 | 0.00 | 0.00 | 0.00 | 55 | 1017.9 |
| 20260509120518 | 68 | 45 | 4.3 | 7.0 | 0.00 | 0.00 | 0.00 | 55 | 1018.0 |
| 20260509115518 | 68 | 90 | 5.2 | 8.7 | 0.00 | 0.00 | 0.00 | 55 | 1018.1 |
| 20260509114518 | 68 | 68 | 5.2 | 10.4 | 0.00 | 0.00 | 0.00 | 56 | 1018.3 |
| 20260509113518 | 68 | 45 | 5.2 | 9.6 | 0.00 | 0.00 | 0.00 | 56 | 1018.3 |
| 20260509112518 | 68 | 68 | 4.3 | 7.8 | 0.00 | 0.00 | 0.00 | 56 | 1018.4 |
| 20260509111523 | 69 | 68 | 3.5 | 7.8 | 0.00 | 0.00 | 0.00 | 55 | 1018.5 |
| 20260509110544 | 69 | 68 | 4.3 | 8.7 | 0.00 | 0.00 | 0.00 | 57 | 1018.5 |
| 20260509105519 | 69 | 45 | 4.3 | 10.4 | 0.00 | 0.00 | 0.00 | 56 | 1018.7 |
| 20260509104520 | 68 | 45 | 3.5 | 8.7 | 0.00 | 0.00 | 0.00 | 60 | 1018.7 |
| 20260509103520 | 67 | 68 | 4.3 | 7.8 | 0.00 | 0.00 | 0.00 | 62 | 1018.8 |
| 20260509102600 | 65 | 68 | 2.6 | 5.2 | 0.00 | 0.00 | 0.00 | 62 | 1019.0 |
| 20260509101519 | 65 | 68 | 3.5 | 6.1 | 0.00 | 0.00 | 0.00 | 62 | 1019.0 |
| 20260509100546 | 65 | 45 | 4.3 | 7.0 | 0.00 | 0.00 | 0.00 | 64 | 1018.9 |
| 20260509095541 | 65 | 135 | 3.5 | 6.1 | 0.00 | 0.00 | 0.00 | 61 | 1018.9 |
| 20260509094543 | 65 | 45 | 2.6 | 7.0 | 0.00 | 0.00 | 0.00 | 62 | 1019.1 |
| 20260509093543 | 64 | 113 | 2.6 | 7.0 | 0.00 | 0.00 | 0.00 | 63 | 1019.1 |
| 20260509092542 | 63 | 68 | 2.6 | 5.2 | 0.00 | 0.00 | 0.00 | 65 | 1018.8 |
| 20260509091519 | 62 | 68 | 2.6 | 5.2 | 0.00 | 0.00 | 0.00 | 67 | 1018.9 |
| 20260509090523 | 61 | 68 | 1.7 | 4.3 | 0.00 | 0.00 | 0.00 | 66 | 1018.9 |
| 20260509085520 | 60 | 68 | 2.6 | 6.1 | 0.00 | 0.00 | 0.00 | 68 | 1018.9 |
| 20260509084519 | 59 | 68 | 3.5 | 5.2 | 0.00 | 0.00 | 0.00 | 69 | 1019.0 |
| 20260509083625 | 59 | 68 | 1.7 | 5.2 | 0.00 | 0.00 | 0.00 | 69 | 1018.8 |
| 20260509082525 | 58 | 113 | 1.7 | 3.5 | 0.00 | 0.00 | 0.00 | 69 | 1018.9 |
| 20260509081520 | 58 | 90 | 2.6 | 5.2 | 0.00 | 0.00 | 0.00 | 69 | 1018.9 |
| 20260509080519 | 57 | 68 | 2.6 | 3.5 | 0.00 | 0.00 | 0.00 | 70 | 1018.9 |
| 20260509075522 | 57 | 68 | 2.6 | 4.3 | 0.00 | 0.00 | 0.00 | 72 | 1018.8 |
| 20260509074519 | 56 | 90 | 1.7 | 3.5 | 0.00 | 0.00 | 0.00 | 73 | 1018.7 |
| 20260509073519 | 55 | 90 | 0.9 | 2.6 | 0.00 | 0.00 | 0.00 | 74 | 1018.6 |
| 20260509072519 | 55 | 68 | 1.7 | 4.3 | 0.00 | 0.00 | 0.00 | 75 | 1018.8 |
| 20260509071519 | 54 | 68 | 1.7 | 3.5 | 0.00 | 0.00 | 0.00 | 76 | 1018.7 |
| 20260509070521 | 54 | 113 | 1.7 | 3.5 | 0.00 | 0.00 | 0.00 | 78 | 1018.8 |
| 20260509065519 | 53 | 68 | 0.9 | 1.7 | 0.00 | 0.00 | 0.00 | 80 | 1018.7 |
| 20260509064520 | 52 | 0.0 | 0.0 | 0.00 | 0.00 | 0.00 | 83 | 1018.7 | |
| 20260509063518 | 50 | 0.0 | 0.0 | 0.00 | 0.00 | 0.00 | 85 | 1018.4 | |
| 20260509062519 | 49 | 0.0 | 0.0 | 0.00 | 0.00 | 0.00 | 86 | 1018.5 | |
| 20260509061520 | 48 | 0.0 | 0.0 | 0.00 | 0.00 | 0.00 | 90 | 1018.3 | |
| 20260509060519 | 47 | 0.0 | 0.0 | 0.00 | 0.00 | 0.00 | 91 | 1018.3 | |
| 20260509055519 | 46 | 0.0 | 0.0 | 0.00 | 0.00 | 0.00 | 92 | 1018.2 | |
| 20260509054519 | 45 | 0.0 | 0.0 | 0.00 | 0.00 | 0.00 | 91 | 1018.1 | |
| 20260509053525 | 44 | 0.0 | 0.0 | 0.00 | 0.00 | 0.00 | 91 | 1018.4 | |
| 20260509052519 | 43 | 0.0 | 0.0 | 0.00 | 0.00 | 0.00 | 91 | 1018.3 | |
| 20260509051519 | 43 | 0.0 | 0.0 | 0.00 | 0.00 | 0.00 | 90 | 1018.2 | |
| 20260509050554 | 43 | 0.0 | 0.0 | 0.00 | 0.00 | 0.00 | 90 | 1018.0 | |
| 20260509045520 | 43 | 0.0 | 0.0 | 0.00 | 0.00 | 0.00 | 89 | 1017.9 | |
| 20260509044519 | 43 | 0.0 | 0.0 | 0.00 | 0.00 | 0.00 | 90 | 1017.8 | |
| 20260509043530 | 43 | 0.0 | 0.0 | 0.00 | 0.00 | 0.00 | 90 | 1017.9 | |
| 20260509042519 | 43 | 0.0 | 0.0 | 0.00 | 0.00 | 0.00 | 90 | 1017.9 | |
| 20260509041519 | 43 | 0.0 | 0.0 | 0.00 | 0.00 | 0.00 | 90 | 1017.9 | |
| 20260509040524 | 43 | 0.0 | 0.0 | 0.00 | 0.00 | 0.00 | 89 | 1018.1 | |
| 20260509035520 | 43 | 0.0 | 0.0 | 0.00 | 0.00 | 0.00 | 89 | 1018.0 | |
| 20260509034541 | 43 | 0.0 | 0.0 | 0.00 | 0.00 | 0.00 | 90 | 1018.0 | |
| 20260509033519 | 43 | 0.0 | 0.0 | 0.00 | 0.00 | 0.00 | 90 | 1018.1 | |
| 20260509032520 | 43 | 0.0 | 0.0 | 0.00 | 0.00 | 0.00 | 89 | 1018.0 | |
| 20260509031519 | 43 | 0.0 | 0.0 | 0.00 | 0.00 | 0.00 | 89 | 1018.3 | |
| 20260509030519 | 43 | 0.0 | 0.0 | 0.00 | 0.00 | 0.00 | 89 | 1018.3 | |
| 20260509025518 | 43 | 0.0 | 0.0 | 0.00 | 0.00 | 0.00 | 89 | 1018.3 | |
| 20260509024519 | 43 | 0.0 | 0.9 | 0.00 | 0.00 | 0.00 | 88 | 1018.2 | |
| 20260509023517 | 44 | 0.0 | 1.7 | 0.00 | 0.00 | 0.00 | 89 | 1018.2 | |
| 20260509022517 | 44 | 0.0 | 0.0 | 0.00 | 0.00 | 0.00 | 88 | 1018.2 | |
| 20260509021519 | 44 | 0.0 | 0.9 | 0.00 | 0.00 | 0.00 | 89 | 1018.1 | |
| 20260509020520 | 44 | 0.0 | 0.9 | 0.00 | 0.00 | 0.00 | 88 | 1017.6 | |
| 20260509015539 | 44 | 0.0 | 0.0 | 0.00 | 0.00 | 0.00 | 88 | 1017.7 | |
| 20260509014525 | 44 | 0.0 | 0.9 | 0.00 | 0.00 | 0.00 | 88 | 1017.8 | |
| 20260509013518 | 45 | 0.0 | 0.9 | 0.00 | 0.00 | 0.00 | 87 | 1018.0 | |
| 20260509012519 | 45 | 180 | 1.7 | 2.6 | 0.00 | 0.00 | 0.00 | 87 | 1018.0 |
| 20260509011540 | 45 | 0.0 | 0.0 | 0.00 | 0.00 | 0.00 | 88 | 1017.9 | |
| 20260509010519 | 45 | 0.0 | 0.0 | 0.00 | 0.00 | 0.00 | 88 | 1017.9 | |
| 20260509005519 | 45 | 0.0 | 0.0 | 0.00 | 0.00 | 0.00 | 87 | 1018.1 | |
| 20260509004544 | 45 | 0.0 | 0.0 | 0.00 | 0.00 | 0.00 | 87 | 1018.0 | |
| 20260509003525 | 46 | 0.0 | 0.9 | 0.00 | 0.00 | 0.00 | 87 | 1018.0 | |
| 20260509002519 | 46 | 0.0 | 1.7 | 0.00 | 0.00 | 0.00 | 86 | 1017.8 | |
| 20260509001519 | 46 | 180 | 0.9 | 1.7 | 0.00 | 0.00 | 0.00 | 85 | 1018.1 |
| 20260509000518 | 47 | 180 | 0.9 | 2.6 | 0.00 | 0.00 | 0.00 | 86 | 1018.1 |
| 20260508235539 | 47 | 0.0 | 0.9 | 0.00 | 0.00 | 0.00 | 86 | 1018.2 | |
| 20260508234519 | 47 | 0.0 | 0.0 | 0.00 | 0.00 | 0.00 | 85 | 1018.2 | |
| 20260508233519 | 47 | 0.0 | 0.0 | 0.00 | 0.00 | 0.00 | 85 | 1018.2 | |
| 20260508232519 | 48 | 0.0 | 1.7 | 0.00 | 0.00 | 0.00 | 85 | 1018.2 | |
| 20260508231519 | 48 | 0.0 | 0.0 | 0.00 | 0.00 | 0.00 | 85 | 1018.1 | |
| 20260508230520 | 48 | 0.0 | 0.0 | 0.00 | 0.00 | 0.00 | 85 | 1018.0 | |
| 20260508225519 | 48 | 180 | 0.9 | 1.7 | 0.00 | 0.00 | 0.00 | 84 | 1017.9 |
| 20260508224519 | 48 | 180 | 0.9 | 1.7 | 0.00 | 0.00 | 0.00 | 84 | 1018.1 |
| 20260508223519 | 49 | 180 | 0.9 | 1.7 | 0.00 | 0.00 | 0.00 | 83 | 1017.9 |
| 20260508222519 | 49 | 0.0 | 0.0 | 0.00 | 0.00 | 0.00 | 83 | 1018.0 | |
| 20260508221519 | 50 | 0.0 | 1.7 | 0.00 | 0.00 | 0.00 | 82 | 1018.1 | |
| 20260508220519 | 50 | 203 | 0.9 | 2.6 | 0.00 | 0.00 | 0.00 | 82 | 1018.2 |
| 20260508215539 | 51 | 0.0 | 0.9 | 0.00 | 0.00 | 0.00 | 81 | 1018.3 | |
| 20260508214519 | 51 | 0.0 | 0.0 | 0.00 | 0.00 | 0.00 | 81 | 1018.2 | |
| 20260508213530 | 51 | 0.0 | 0.0 | 0.00 | 0.00 | 0.00 | 80 | 1018.0 | |
| 20260508212518 | 52 | 203 | 0.9 | 2.6 | 0.00 | 0.00 | 0.00 | 79 | 1018.1 |
| 20260508211518 | 52 | 203 | 0.9 | 1.7 | 0.00 | 0.00 | 0.00 | 79 | 1018.2 |
| 20260508210646 | 52 | 0.0 | 0.9 | 0.00 | 0.00 | 0.00 | 77 | 1018.2 | |
| 20260508205519 | 53 | 0.0 | 0.9 | 0.00 | 0.00 | 0.00 | 76 | 1018.0 | |
| 20260508204524 | 53 | 203 | 0.9 | 1.7 | 0.00 | 0.00 | 0.00 | 76 | 1018.0 |
| 20260508203522 | 54 | 203 | 0.9 | 1.7 | 0.00 | 0.00 | 0.00 | 75 | 1017.9 |
| 20260508202543 | 55 | 203 | 0.9 | 0.9 | 0.00 | 0.00 | 0.00 | 74 | 1017.7 |
| 20260508201528 | 56 | 203 | 0.9 | 1.7 | 0.00 | 0.00 | 0.00 | 72 | 1017.7 |
| 20260508200518 | 56 | 0.0 | 0.9 | 0.00 | 0.00 | 0.00 | 71 | 1017.8 | |
| 20260508195519 | 57 | 180 | 0.9 | 2.6 | 0.00 | 0.00 | 0.00 | 69 | 1017.6 |
| 20260508194519 | 58 | 203 | 0.9 | 1.7 | 0.00 | 0.00 | 0.00 | 68 | 1017.5 |
| 20260508193530 | 59 | 0.0 | 1.7 | 0.00 | 0.00 | 0.00 | 67 | 1017.4 | |
| 20260508192518 | 59 | 203 | 0.9 | 1.7 | 0.00 | 0.00 | 0.00 | 66 | 1017.1 |
| 20260508191519 | 59 | 203 | 1.7 | 4.3 | 0.00 | 0.00 | 0.00 | 65 | 1016.9 |
| 20260508190519 | 60 | 180 | 2.6 | 4.3 | 0.00 | 0.00 | 0.00 | 65 | 1017.1 |
| 20260508185518 | 60 | 180 | 0.9 | 2.6 | 0.00 | 0.00 | 0.00 | 64 | 1016.8 |
| 20260508184527 | 61 | 180 | 2.6 | 5.2 | 0.00 | 0.00 | 0.00 | 64 | 1016.7 |
| 20260508183518 | 61 | 180 | 1.7 | 4.3 | 0.00 | 0.00 | 0.00 | 64 | 1016.8 |
| 20260508182519 | 62 | 180 | 3.5 | 7.0 | 0.00 | 0.00 | 0.00 | 63 | 1016.6 |
| 20260508181519 | 63 | 203 | 3.5 | 7.0 | 0.00 | 0.00 | 0.00 | 61 | 1016.8 |
| 20260508180518 | 63 | 203 | 3.5 | 6.1 | 0.00 | 0.00 | 0.00 | 62 | 1016.7 |
| 20260508175519 | 63 | 203 | 3.5 | 7.8 | 0.00 | 0.00 | 0.00 | 59 | 1016.5 |
| 20260508174518 | 64 | 180 | 2.6 | 4.3 | 0.00 | 0.00 | 0.00 | 57 | 1016.4 |
| 20260508173527 | 64 | 180 | 3.5 | 6.1 | 0.00 | 0.00 | 0.00 | 52 | 1016.3 |
| 20260508172518 | 65 | 203 | 3.5 | 8.7 | 0.00 | 0.00 | 0.00 | 54 | 1016.2 |
| 20260508171518 | 65 | 203 | 4.3 | 7.8 | 0.00 | 0.00 | 0.00 | 55 | 1016.2 |
| 20260508170518 | 65 | 180 | 5.2 | 9.6 | 0.00 | 0.00 | 0.00 | 55 | 1016.1 |
| 20260508165519 | 65 | 158 | 5.2 | 8.7 | 0.00 | 0.00 | 0.00 | 50 | 1016.0 |
| 20260508164518 | 66 | 135 | 4.3 | 8.7 | 0.00 | 0.00 | 0.00 | 49 | 1016.0 |
| 20260508163518 | 66 | 203 | 4.3 | 7.0 | 0.00 | 0.00 | 0.00 | 52 | 1015.7 |
| 20260508162518 | 66 | 180 | 3.5 | 7.0 | 0.00 | 0.00 | 0.00 | 51 | 1015.6 |
| 20260508161518 | 66 | 203 | 3.5 | 6.1 | 0.00 | 0.00 | 0.00 | 48 | 1015.7 |